| time (UTC) | temp F | wind direction | speed MPH | gust MPH | rain 1hr in | rain 24hr in | rain mn in | humidity % | barometer mb |
| 20260902092038 | 60 | 130 | 2.0 | 6.0 | 0.00 | 0.00 | 0.00 | 79 | 1016.9 |
| 20260902091042 | 60 | 143 | 2.0 | 5.0 | 0.00 | 0.00 | 0.00 | 78 | 1016.8 |
| 20260902090021 | 60 | 149 | 2.0 | 6.0 | 0.00 | 0.00 | 0.00 | 78 | 1016.8 |
| 20260902085023 | 60 | 121 | 2.0 | 4.0 | 0.00 | 0.00 | 0.00 | 78 | 1016.8 |
| 20260902084026 | 60 | 105 | 3.0 | 5.0 | 0.00 | 0.00 | 0.00 | 78 | 1016.8 |
| 20260902083025 | 60 | 88 | 3.0 | 5.0 | 0.00 | 0.00 | 0.00 | 77 | 1016.9 |
| 20260902082011 | 60 | 119 | 3.0 | 7.0 | 0.00 | 0.00 | 0.00 | 77 | 1016.8 |
| 20260902081014 | 61 | 116 | 3.0 | 6.0 | 0.00 | 0.00 | 0.00 | 77 | 1016.7 |
| 20260902080013 | 61 | 137 | 3.0 | 7.0 | 0.00 | 0.00 | 0.00 | 77 | 1016.6 |
| 20260902075038 | 61 | 176 | 3.0 | 8.0 | 0.00 | 0.00 | 0.00 | 77 | 1016.3 |
| 20260902074021 | 61 | 138 | 3.0 | 7.0 | 0.00 | 0.00 | 0.00 | 76 | 1016.4 |
| 20260902073043 | 61 | 120 | 5.0 | 9.0 | 0.00 | 0.00 | 0.00 | 76 | 1016.4 |
| 20260902072025 | 61 | 132 | 5.0 | 8.0 | 0.00 | 0.00 | 0.00 | 76 | 1016.4 |
| 20260902071048 | 61 | 152 | 3.0 | 6.0 | 0.00 | 0.00 | 0.00 | 75 | 1016.5 |
| 20260902070022 | 61 | 143 | 4.0 | 8.0 | 0.00 | 0.00 | 0.00 | 75 | 1016.4 |
| 20260902065045 | 62 | 137 | 4.0 | 9.0 | 0.00 | 0.00 | 0.00 | 74 | 1016.5 |
| 20260902064024 | 62 | 119 | 5.0 | 8.0 | 0.00 | 0.00 | 0.00 | 74 | 1016.3 |
| 20260902063027 | 62 | 99 | 3.0 | 7.0 | 0.00 | 0.00 | 0.00 | 74 | 1016.5 |
| 20260902062023 | 62 | 135 | 4.0 | 6.0 | 0.00 | 0.00 | 0.00 | 73 | 1016.5 |
| 20260902061043 | 62 | 185 | 3.0 | 5.0 | 0.00 | 0.00 | 0.00 | 73 | 1016.6 |
| 20260902060017 | 63 | 121 | 3.0 | 10.0 | 0.00 | 0.00 | 0.00 | 72 | 1016.7 |
| 20260902055018 | 63 | 137 | 4.0 | 7.0 | 0.00 | 0.00 | 0.00 | 72 | 1016.6 |
| 20260902054038 | 63 | 184 | 2.0 | 5.0 | 0.00 | 0.00 | 0.00 | 70 | 1016.7 |
| 20260902053017 | 63 | 195 | 4.0 | 8.0 | 0.00 | 0.00 | 0.00 | 70 | 1016.6 |
| 20260902052020 | 64 | 186 | 4.0 | 7.0 | 0.00 | 0.00 | 0.00 | 69 | 1016.5 |
| 20260902051044 | 64 | 174 | 2.0 | 5.0 | 0.00 | 0.00 | 0.00 | 67 | 1016.5 |
| 20260902050020 | 64 | 150 | 4.0 | 8.0 | 0.00 | 0.00 | 0.00 | 67 | 1016.5 |
| 20260902045021 | 65 | 223 | 1.0 | 8.0 | 0.00 | 0.00 | 0.00 | 66 | 1016.4 |
| 20260902044020 | 65 | 150 | 3.0 | 9.0 | 0.00 | 0.00 | 0.00 | 66 | 1016.3 |
| 20260902043020 | 65 | 216 | 4.0 | 10.0 | 0.00 | 0.00 | 0.00 | 65 | 1016.1 |
| 20260902042018 | 66 | 196 | 4.0 | 12.0 | 0.00 | 0.00 | 0.00 | 64 | 1016.0 |
| 20260902041013 | 66 | 219 | 2.0 | 11.0 | 0.00 | 0.00 | 0.00 | 63 | 1015.9 |
| 20260902040013 | 66 | 214 | 3.0 | 11.0 | 0.00 | 0.00 | 0.00 | 62 | 1015.8 |
| 20260902035025 | 67 | 230 | 4.0 | 10.0 | 0.00 | 0.00 | 0.00 | 61 | 1015.5 |
| 20260902034047 | 67 | 234 | 4.0 | 10.0 | 0.00 | 0.00 | 0.00 | 61 | 1015.3 |
| 20260902033019 | 67 | 265 | 3.0 | 11.0 | 0.00 | 0.00 | 0.00 | 60 | 1015.1 |
| 20260902032021 | 68 | 245 | 3.0 | 12.0 | 0.00 | 0.00 | 0.00 | 58 | 1015.0 |
| 20260902031022 | 68 | 232 | 3.0 | 6.0 | 0.00 | 0.00 | 0.00 | 57 | 1014.7 |
| 20260902030035 | 69 | 310 | 4.0 | 9.0 | 0.00 | 0.00 | 0.00 | 55 | 1014.8 |
| 20260902025013 | 69 | 220 | 2.0 | 9.0 | 0.00 | 0.00 | 0.00 | 54 | 1014.5 |
| 20260902024016 | 70 | 255 | 3.0 | 9.0 | 0.00 | 0.00 | 0.00 | 53 | 1014.3 |
| 20260902023017 | 70 | 242 | 3.0 | 11.0 | 0.00 | 0.00 | 0.00 | 52 | 1014.3 |
| 20260902022012 | 70 | 234 | 4.0 | 12.0 | 0.00 | 0.00 | 0.00 | 51 | 1014.1 |
| 20260902021033 | 71 | 254 | 4.0 | 10.0 | 0.00 | 0.00 | 0.00 | 49 | 1014.1 |
| 20260902020011 | 72 | 211 | 5.0 | 12.0 | 0.00 | 0.00 | 0.00 | 49 | 1014.1 |
| 20260902015028 | 72 | 214 | 4.0 | 11.0 | 0.00 | 0.00 | 0.00 | 48 | 1014.1 |
| 20260902014028 | 73 | 205 | 4.0 | 11.0 | 0.00 | 0.00 | 0.00 | 47 | 1013.9 |
| 20260902013022 | 74 | 255 | 5.0 | 16.0 | 0.00 | 0.00 | 0.00 | 46 | 1013.9 |
| 20260902012025 | 75 | 238 | 4.0 | 11.0 | 0.00 | 0.00 | 0.00 | 43 | 1013.8 |
| 20260902011025 | 76 | 214 | 3.0 | 9.0 | 0.00 | 0.00 | 0.00 | 43 | 1013.8 |
| 20260902010020 | 76 | 256 | 4.0 | 10.0 | 0.00 | 0.00 | 0.00 | 43 | 1013.8 |
| 20260902005018 | 76 | 200 | 6.0 | 11.0 | 0.00 | 0.00 | 0.00 | 42 | 1013.8 |
| 20260902004019 | 77 | 207 | 5.0 | 9.0 | 0.00 | 0.00 | 0.00 | 41 | 1013.8 |
| 20260902003021 | 77 | 208 | 4.0 | 13.0 | 0.00 | 0.00 | 0.00 | 40 | 1013.9 |
| 20260902002016 | 77 | 270 | 6.0 | 13.0 | 0.00 | 0.00 | 0.00 | 41 | 1013.8 |
| 20260902001031 | 78 | 180 | 3.0 | 10.0 | 0.00 | 0.00 | 0.00 | 41 | 1013.9 |
| 20260902000013 | 78 | 166 | 4.0 | 11.0 | 0.00 | 0.00 | 0.00 | 39 | 1014.1 |
| 20260901235028 | 78 | 247 | 5.0 | 9.0 | 0.00 | 0.00 | 0.00 | 39 | 1014.0 |
| 20260901234028 | 77 | 181 | 6.0 | 13.0 | 0.00 | 0.00 | 0.00 | 40 | 1014.2 |
| 20260901233027 | 77 | 166 | 4.0 | 11.0 | 0.00 | 0.00 | 0.00 | 39 | 1014.0 |
| 20260901232024 | 77 | 243 | 6.0 | 14.0 | 0.00 | 0.00 | 0.00 | 39 | 1014.2 |
| 20260901231024 | 78 | 168 | 4.0 | 11.0 | 0.00 | 0.00 | 0.00 | 39 | 1014.4 |
| 20260901230043 | 77 | 236 | 6.0 | 10.0 | 0.00 | 0.00 | 0.00 | 39 | 1014.4 |
| 20260901225041 | 77 | 122 | 5.0 | 10.0 | 0.00 | 0.00 | 0.00 | 42 | 1014.4 |
| 20260901224020 | 76 | 153 | 4.0 | 12.0 | 0.00 | 0.00 | 0.00 | 42 | 1014.6 |
| 20260901223017 | 76 | 214 | 2.0 | 10.0 | 0.00 | 0.00 | 0.00 | 44 | 1014.7 |
| 20260901222017 | 76 | 218 | 4.0 | 10.0 | 0.00 | 0.00 | 0.00 | 46 | 1014.8 |
| 20260901221019 | 75 | 207 | 3.0 | 9.0 | 0.00 | 0.00 | 0.00 | 47 | 1014.8 |
| 20260901220018 | 75 | 215 | 7.0 | 12.0 | 0.00 | 0.00 | 0.00 | 46 | 1015.0 |
| 20260901215016 | 74 | 231 | 4.0 | 12.0 | 0.00 | 0.00 | 0.00 | 48 | 1014.9 |
| 20260901214019 | 73 | 16 | 2.0 | 11.0 | 0.00 | 0.00 | 0.00 | 49 | 1014.9 |
| 20260901213024 | 74 | 144 | 5.0 | 11.0 | 0.00 | 0.00 | 0.00 | 48 | 1015.0 |
| 20260901212022 | 74 | 181 | 5.0 | 12.0 | 0.00 | 0.00 | 0.00 | 48 | 1015.0 |
| 20260901211022 | 73 | 294 | 6.0 | 10.0 | 0.00 | 0.00 | 0.00 | 48 | 1015.1 |
| 20260901210022 | 75 | 229 | 4.0 | 11.0 | 0.00 | 0.00 | 0.00 | 48 | 1015.4 |
| 20260901205014 | 75 | 194 | 3.0 | 5.0 | 0.00 | 0.00 | 0.00 | 51 | 1015.4 |
| 20260901204014 | 73 | 218 | 4.0 | 12.0 | 0.00 | 0.00 | 0.00 | 54 | 1015.5 |
| 20260901203020 | 73 | 235 | 5.0 | 11.0 | 0.00 | 0.00 | 0.00 | 52 | 1015.6 |
| 20260901202040 | 72 | 243 | 4.0 | 14.0 | 0.00 | 0.00 | 0.00 | 53 | 1015.8 |
| 20260901201020 | 73 | 209 | 3.0 | 11.0 | 0.00 | 0.00 | 0.00 | 52 | 1015.9 |
| 20260901200020 | 73 | 182 | 6.0 | 12.0 | 0.00 | 0.00 | 0.00 | 51 | 1015.8 |
| 20260901195017 | 73 | 216 | 5.0 | 14.0 | 0.00 | 0.00 | 0.00 | 52 | 1015.8 |
| 20260901194016 | 72 | 175 | 5.0 | 12.0 | 0.00 | 0.00 | 0.00 | 52 | 1015.9 |
| 20260901193041 | 72 | 122 | 3.0 | 10.0 | 0.00 | 0.00 | 0.00 | 53 | 1016.1 |
| 20260901192022 | 72 | 228 | 5.0 | 15.0 | 0.00 | 0.00 | 0.00 | 54 | 1016.1 |
| 20260901191019 | 71 | 188 | 5.0 | 10.0 | 0.00 | 0.00 | 0.00 | 54 | 1016.2 |
| 20260901190041 | 71 | 152 | 5.0 | 11.0 | 0.00 | 0.00 | 0.00 | 54 | 1016.4 |
| 20260901185016 | 70 | 240 | 5.0 | 13.0 | 0.00 | 0.00 | 0.00 | 59 | 1016.5 |
| 20260901184019 | 69 | 177 | 6.0 | 11.0 | 0.00 | 0.00 | 0.00 | 60 | 1016.5 |
| 20260901183021 | 69 | 218 | 3.0 | 8.0 | 0.00 | 0.00 | 0.00 | 61 | 1016.5 |
| 20260901182023 | 68 | 203 | 4.0 | 10.0 | 0.00 | 0.00 | 0.00 | 63 | 1016.5 |
| 20260901181022 | 69 | 226 | 3.0 | 10.0 | 0.00 | 0.00 | 0.00 | 62 | 1016.5 |
| 20260901180041 | 69 | 150 | 7.0 | 12.0 | 0.00 | 0.00 | 0.00 | 60 | 1016.3 |
| 20260901175020 | 70 | 169 | 5.0 | 12.0 | 0.00 | 0.00 | 0.00 | 60 | 1016.3 |
| 20260901174038 | 69 | 206 | 3.0 | 10.0 | 0.00 | 0.00 | 0.00 | 63 | 1016.4 |
| 20260901173019 | 67 | 119 | 4.0 | 10.0 | 0.00 | 0.00 | 0.00 | 64 | 1016.3 |
| 20260901172025 | 67 | 172 | 6.0 | 13.0 | 0.00 | 0.00 | 0.00 | 64 | 1016.5 |
| 20260901171027 | 67 | 192 | 5.0 | 11.0 | 0.00 | 0.00 | 0.00 | 64 | 1016.3 |
| 20260901170046 | 66 | 199 | 4.0 | 9.0 | 0.00 | 0.00 | 0.00 | 66 | 1016.1 |
| 20260901165041 | 66 | 168 | 8.0 | 12.0 | 0.00 | 0.00 | 0.00 | 63 | 1016.1 |
| 20260901164018 | 65 | 199 | 6.0 | 10.0 | 0.00 | 0.00 | 0.00 | 65 | 1016.0 |
| 20260901163039 | 65 | 193 | 7.0 | 13.0 | 0.00 | 0.00 | 0.00 | 67 | 1016.1 |
| 20260901162033 | 65 | 155 | 8.0 | 13.0 | 0.00 | 0.00 | 0.00 | 66 | 1016.0 |
| 20260901161014 | 65 | 202 | 3.0 | 12.0 | 0.00 | 0.00 | 0.00 | 68 | 1015.9 |
| 20260901160014 | 64 | 128 | 3.0 | 13.0 | 0.00 | 0.00 | 0.00 | 70 | 1015.8 |
| 20260901155010 | 64 | 132 | 7.0 | 12.0 | 0.00 | 0.00 | 0.00 | 71 | 1015.8 |
| 20260901154015 | 63 | 159 | 4.0 | 14.0 | 0.00 | 0.00 | 0.00 | 72 | 1015.6 |
| 20260901153019 | 63 | 201 | 4.0 | 10.0 | 0.00 | 0.00 | 0.00 | 72 | 1015.4 |
| 20260901152020 | 62 | 188 | 5.0 | 9.0 | 0.00 | 0.00 | 0.00 | 75 | 1015.2 |
| 20260901151016 | 61 | 140 | 5.0 | 10.0 | 0.00 | 0.00 | 0.00 | 76 | 1015.2 |
| 20260901150017 | 61 | 165 | 4.0 | 11.0 | 0.00 | 0.00 | 0.00 | 76 | 1015.1 |
| 20260901145017 | 61 | 171 | 4.0 | 9.0 | 0.00 | 0.00 | 0.00 | 76 | 1015.1 |
| 20260901144017 | 60 | 141 | 5.0 | 11.0 | 0.00 | 0.00 | 0.00 | 77 | 1015.1 |
| 20260901143018 | 60 | 99 | 5.0 | 11.0 | 0.00 | 0.00 | 0.00 | 78 | 1014.8 |
| 20260901142041 | 60 | 147 | 4.0 | 11.0 | 0.00 | 0.00 | 0.00 | 78 | 1014.5 |
| 20260901141017 | 60 | 176 | 4.0 | 9.0 | 0.00 | 0.00 | 0.00 | 77 | 1014.4 |
| 20260901140035 | 60 | 115 | 7.0 | 12.0 | 0.00 | 0.00 | 0.00 | 77 | 1014.2 |
| 20260901135019 | 60 | 137 | 5.0 | 10.0 | 0.00 | 0.00 | 0.00 | 78 | 1014.2 |
| 20260901134015 | 60 | 150 | 5.0 | 15.0 | 0.00 | 0.00 | 0.00 | 78 | 1014.0 |
| 20260901133037 | 60 | 105 | 3.0 | 10.0 | 0.00 | 0.00 | 0.00 | 79 | 1014.0 |
| 20260901132017 | 59 | 157 | 5.0 | 11.0 | 0.00 | 0.00 | 0.00 | 79 | 1013.9 |
| 20260901131031 | 59 | 134 | 5.0 | 10.0 | 0.00 | 0.00 | 0.00 | 79 | 1013.6 |
| 20260901130016 | 59 | 174 | 7.0 | 12.0 | 0.00 | 0.00 | 0.00 | 79 | 1013.6 |
| 20260901125020 | 59 | 146 | 4.0 | 11.0 | 0.00 | 0.00 | 0.00 | 79 | 1013.6 |
| 20260901124020 | 59 | 143 | 5.0 | 10.0 | 0.00 | 0.00 | 0.00 | 79 | 1013.5 |
| 20260901123019 | 59 | 116 | 5.0 | 10.0 | 0.00 | 0.00 | 0.00 | 79 | 1013.5 |
| 20260901122048 | 59 | 151 | 4.0 | 10.0 | 0.00 | 0.00 | 0.00 | 79 | 1013.4 |
| 20260901121024 | 59 | 107 | 5.0 | 11.0 | 0.00 | 0.00 | 0.00 | 79 | 1013.5 |
| 20260901120023 | 59 | 137 | 5.0 | 9.0 | 0.00 | 0.00 | 0.00 | 78 | 1013.5 |
| 20260901115024 | 59 | 164 | 4.0 | 11.0 | 0.00 | 0.00 | 0.00 | 79 | 1013.4 |
| 20260901114026 | 59 | 139 | 5.0 | 10.0 | 0.00 | 0.00 | 0.00 | 79 | 1013.3 |
| 20260901113013 | 59 | 138 | 5.0 | 9.0 | 0.00 | 0.00 | 0.00 | 79 | 1013.3 |
| 20260901112014 | 59 | 155 | 5.0 | 8.0 | 0.00 | 0.00 | 0.00 | 79 | 1013.1 |
| 20260901111014 | 59 | 120 | 4.0 | 8.0 | 0.00 | 0.00 | 0.00 | 79 | 1013.1 |
| 20260901110015 | 59 | 108 | 5.0 | 7.0 | 0.00 | 0.00 | 0.00 | 79 | 1013.2 |
| 20260901105037 | 59 | 127 | 5.0 | 9.0 | 0.00 | 0.00 | 0.00 | 78 | 1013.2 |
| 20260901104012 | 59 | 123 | 4.0 | 8.0 | 0.00 | 0.00 | 0.00 | 78 | 1013.1 |
| 20260901103013 | 59 | 139 | 5.0 | 8.0 | 0.00 | 0.00 | 0.00 | 78 | 1013.1 |
| 20260901102035 | 59 | 124 | 6.0 | 11.0 | 0.00 | 0.00 | 0.00 | 78 | 1012.9 |
| 20260901101011 | 59 | 132 | 7.0 | 12.0 | 0.00 | 0.00 | 0.00 | 79 | 1013.1 |
| 20260901100014 | 59 | 172 | 5.0 | 13.0 | 0.00 | 0.00 | 0.00 | 79 | 1013.2 |
| 20260901095014 | 59 | 139 | 5.0 | 10.0 | 0.00 | 0.00 | 0.00 | 79 | 1013.1 |
| 20260901094010 | 59 | 157 | 5.0 | 10.0 | 0.00 | 0.00 | 0.00 | 79 | 1013.2 |
| 20260901093013 | 59 | 169 | 7.0 | 9.0 | 0.00 | 0.00 | 0.00 | 79 | 1013.1 |